Location: Bittelbronn
(48.4454°N, 8.5870°E)
Time: 23:17:09
(UTC+00:00)

Meteor 2-5 Rocket - Pass Details

Date: 14 August 2024
Orbit: 833 x 910 km, 81.2° (Epoch: 07 September)

Event Time Altitude Azimuth Distance (km) Brightness Sun altitude
Rises 00:15:32 0° 358° (N) 3,465 8.1 -26.5°
Reaches altitude 10° 00:18:53 10° 18° (NNE) 2,538 7.2 -26.4°
Maximum altitude 00:22:37 17° 59° (ENE) 2,075 6.2 -26.2°
Drops below altitude 10° 00:26:22 10° 99° (E) 2,562 6.3 -26.1°
Enters shadow 00:29:42 - 119° (ESE) 3,494 6.8 -25.9°
